Location: New Town
(33.2710°N, 90.7534°W)
Time: 12:16:50
(UTC+00:00)

Explorer 11/Cluster Stage 4 - Pass Details

Date: 21 May 2021
Orbit: 467 x 1257 km, 28.8° (Epoch: 14 June)

Event Time Altitude Azimuth Distance (km) Brightness Sun altitude
Rises 22:27:33 0° 238° (WSW) 3,239 10.5 29.8°
Reaches altitude 10° 22:29:56 10° 231° (SW) 2,431 9.8 29.4°
Maximum altitude 22:35:29 42° 162° (SSE) 1,341 7.9 28.2°
Drops below altitude 10° 22:42:15 10° 94° (E) 2,964 9.1 26.8°
Sets 22:45:26 0° 88° (E) 4,024 9.7 26.1°
